Cloud_Cover
100 100 100 100 100 100 100 96 99 100 43 5 5 5 5 5 5 5 6 88 76 100 96 84 13 12 5 5 5 5 5 5
100 100 100 100 100 100 100 100 97 40 5 5 9 5 5 5 5 5 65 5 94 95 58 64 100 5 5 28 5 5 5 5
100 100 100 100 100 100 100 90 60 60 57 41 10 11 84 65 27 37 10 5 5 5 18 65 14 3 53 39 5 5 5 5
100 100 100 100 100 100 97 36 78 100 87 6 38 79 68 62 6 5 15 22 52 5 9 18 3 98 19 5 5 5 31 5
100 100 100 100 100 100 98 100 100 94 27 34 88 54 22 90 54 28 75 99 17 5 7 5 84 40 5 5 5 5 5 41
100 100 100 100 100 100 100 100 72 55 72 100 71 76 100 100 99 83 100 61 37 30 12 100 6 5 5 5 5 5 5 80
100 100 100 100 91 100 100 38 84 99 100 98 75 100 84 88 94 84 76 20 90 28 94 36 5 8 12 5 5 5 6 11
19 7 5 31 44 58 69 100 90 69 95 100 99 82 77 91 88 54 25 100 78 98 39 78 59 38 5 5 5 5 6 30
5 5 4 5 66 100 90 99 100 72 98 100 93 99 98 96 75 27 94 99 19 61 99 62 12 5 5 5 5 5 6 22
6 58 100 100 98 100 98 98 45 77 100 100 79 100 100 100 36 6 68 40 45 20 26 7 5 5 5 5 5 6 10 11
100 95 61 100 100 92 5 39 100 100 100 99 95 100 100 84 85 86 71 93 83 5 55 5 5 5 5 5 5 6 6 7
6 81 100 100 76 70 86 96 100 100 100 100 97 98 100 100 100 100 100 100 100 78 5 5 5 5 5 5 29 10 5 6
100 98 100 100 76 96 100 100 100 100 100 90 74 100 100 100 100 100 100 100 100 32 5 5 5 5 5 27 74 10 5 80
100 99 99 100 65 95 100 99 100 100 100 100 100 100 84 100 100 100 100 100 5 5 5 5 5 5 6 80 71 6 5 80
100 100 100 100 98 100 100 100 100 100 100 100 100 100 99 94 100 66 99 63 5 5 5 8 5 5 53 100 98 27 5 5
87 6 54 88 100 100 100 100 100 99 100 100 99 100 95 95 10 94 13 5 6 5 24 5 5 7 100 100 100 43 5 5
5 12 99 100 100 100 100 100 100 100 100 100 94 100 72 84 89 5 5 5 5 5 5 5 5 6 100 100 100 5 5 63
82 100 100 100 100 100 100 100 100 92 53 100 100 100 100 100 84 1 7 5 5 5 5 5 5 5 100 100 100 5 13 29
100 100 100 100 100 100 100 100 100 99 100 100 100 100 100 98 64 100 9 5 5 5 5 5 5 6 98 100 90 5 8 57